Temp
26 26 26 26 26 26 26 26 26 26 26 26 25 26 25 25 25 25 25 25 25 25 25 25 25 25 25 25 25 25 25 25 25 25 25 25 25 26 26 26 26 27
26 26 26 26 26 26 26 26 26 26 26 26 26 26 26 26 26 26 26 25 25 25 25 25 25 25 25 25 25 25 25 25 25 25 25 25 25 25 26 26 26 27
26 26 26 26 26 26 26 26 26 26 26 26 26 26 26 26 26 26 26 26 25 25 25 25 25 25 25 26 25 25 25 25 25 25 25 25 25 25 26 26 26 26
26 26 26 26 26 26 26 26 26 26 26 26 26 26 26 26 26 26 26 26 25 25 25 25 25 25 25 25 25 25 25 25 25 25 25 25 25 26 26 26 26 26
26 26 26 26 26 26 26 26 26 26 26 26 26 26 27 26 26 26 26 26 26 25 25 25 25 25 25 25 25 26 26 26 25 25 25 25 25 25 26 26 26 26
26 26 26 26 26 26 26 26 26 27 27 27 27 27 27 27 27 26 26 26 26 25 25 25 25 25 25 25 25 25 26 26 26 25 25 25 25 26 26 26 26 26
26 26 26 26 26 26 26 26 27 27 27 27 27 27 27 27 27 27 26 26 26 26 26 26 25 25 25 25 25 25 25 26 26 25 25 25 25 26 26 25 26 26
26 26 26 26 26 26 26 27 27 27 27 27 27 27 27 27 27 27 26 26 26 26 26 26 26 25 25 25 25 25 25 25 25 25 25 26 26 26 26 25 25 26
25 26 26 26 26 26 27 27 27 27 27 27 27 27 27 27 27 27 27 26 26 26 26 26 26 26 26 26 25 25 25 25 25 25 26 26 26 26 26 25 26 26
26 26 26 26 26 26 27 27 27 27 27 27 27 27 28 27 27 27 27 27 26 26 26 26 26 26 26 26 26 26 26 26 26 26 26 26 26 26 26 26 26 26
25 25 26 26 26 26 27 27 27 27 27 27 28 28 28 28 28 27 27 27 27 27 26 27 27 27 26 26 26 26 26 26 26 26 26 26 26 26 26 26 26 26
24 23 23 25 26 26 27 27 27 27 28 28 28 28 28 28 28 28 27 27 27 27 27 27 27 27 27 27 27 26 26 26 26 26 26 26 26 26 26 26 26 26
23 21 21 24 26 26 26 27 27 27 27 27 28 28 28 28 28 28 28 27 27 27 27 27 27 27 27 27 27 27 27 26 26 26 27 26 26 26 26 26 27 27
23 22 21 23 25 25 25 26 26 26 26 26 27 28 28 28 28 28 28 28 28 27 27 27 27 27 27 27 27 27 27 27 27 27 27 27 27 27 27 27 27 27
23 23 22 22 24 25 25 26 26 27 26 26 26 27 28 28 28 28 28 28 28 28 27 27 27 27 27 27 27 27 27 27 27 27 27 27 27 27 27 27 27 27
23 23 22 23 24 24 25 26 26 27 27 27 26 26 27 28 28 29 29 28 28 28 28 27 27 27 27 27 27 27 27 27 27 27 27 27 27 27 27 27 27 27
22 23 23 23 23 24 25 25 26 26 27 27 27 27 27 27 28 29 29 29 28 28 28 28 27 27 27 27 27 27 27 26 26 27 27 27 27 27 27 27 27 27
22 22 23 23 24 24 25 25 25 25 26 27 27 28 27 27 27 28 29 29 29 28 28 28 28 28 28 27 27 27 27 27 26 26 27 27 27 27 27 27 27 27
21 22 22 23 24 24 25 25 24 24 25 25 26 27 28 28 27 27 28 29 29 29 28 28 28 28 28 28 27 27 27 27 27 26 27 27 27 27 27 27 27 27
21 21 21 22 22 23 24 24 24 24 24 24 25 26 27 27 27 27 27 28 28 28 28 28 28 28 28 28 28 28 28 28 27 27 27 27 27 27 27 27 27 28
20 21 21 21 21 22 23 24 23 23 24 24 24 25 25 26 27 27 27 28 28 28 28 28 28 28 28 28 28 28 28 28 28 27 27 27 27 27 27 27 27 28
20 20 20 21 21 21 22 22 22 22 23 23 23 24 24 25 25 26 27 27 27 27 28 28 28 28 28 28 28 28 28 28 28 28 27 27 27 27 27 27 27 28
20 20 20 21 21 21 21 21 21 21 22 22 22 22 23 23 24 24 24 25 25 26 26 27 28 28 28 28 27 28 28 28 28 28 27 27 27 27 27 27 28 28
20 20 20 20 21 21 21 21 21 21 21 21 21 21 22 22 23 23 23 24 24 24 25 25 26 27 27 27 26 26 26 26 27 27 27 26 27 27 27 27 27 28
20 20 20 20 20 21 21 21 21 21 21 21 21 21 21 21 22 22 23 24 24 24 24 24 25 26 26 26 25 25 24 23 24 24 24 25 26 26 27 27 27 27
20 20 20 20 20 21 21 21 21 21 21 21 21 21 21 21 21 22 22 23 23 23 23 24 24 24 24 24 24 24 23 23 23 22 22 23 23 24 25 26 26 27
Height
846 849 850 852 853 854 855 856 857 858 859 860 862 863 863 864 865 866 866 867 867 868 868 868 867 867 868 868 868 868 868 868 868 869 869 869 869 869 869 869 869 869
846 848 850 851 853 854 855 856 857 858 859 860 861 862 863 864 865 865 866 867 867 867 868 868 867 867 867 868 868 868 868 868 868 868 868 868 869 869 869 869 869 869
845 847 849 851 852 853 855 856 857 858 858 859 860 861 862 863 864 864 865 866 867 867 867 867 867 867 867 868 868 868 868 868 868 868 869 868 868 869 869 869 869 868
844 846 847 849 851 853 854 855 856 857 858 859 859 860 861 862 863 864 864 865 866 867 867 867 867 867 868 868 868 868 868 868 868 868 869 868 868 869 869 869 868 868
842 844 846 848 849 851 853 854 855 856 857 858 858 859 860 861 862 863 863 864 865 866 866 867 867 867 867 868 868 868 868 868 868 868 868 868 868 868 868 868 868 868
840 842 844 846 847 849 851 852 854 855 855 857 857 858 859 859 860 861 862 863 864 865 865 866 867 867 867 867 867 868 868 868 868 868 868 868 868 868 868 868 868 868
838 840 842 844 845 847 848 849 851 853 854 855 856 857 857 858 858 859 860 861 862 864 864 865 866 866 866 866 867 867 867 868 868 867 867 867 867 867 867 867 868 868
836 838 840 842 843 845 846 847 849 850 851 853 853 854 855 856 857 857 858 859 861 862 863 864 864 865 866 866 866 866 867 867 867 867 867 866 866 866 866 867 867 867
834 836 838 840 842 843 844 845 846 847 849 850 851 852 853 854 855 856 857 857 859 860 861 862 863 863 864 864 865 865 865 866 866 866 866 866 865 865 866 866 866 866
832 834 836 838 840 842 842 843 844 845 846 847 848 849 850 851 853 854 855 856 856 858 859 860 861 861 862 863 863 864 864 864 865 865 865 865 864 864 865 865 865 865
831 833 835 835 838 840 841 841 842 842 843 844 845 847 848 849 850 852 853 854 855 856 857 858 859 860 860 861 862 862 862 863 863 864 864 863 863 863 864 864 864 864
829 833 836 834 834 836 837 838 839 839 840 841 843 844 846 847 848 849 851 852 853 854 855 856 857 858 858 859 860 861 861 861 861 862 862 862 862 862 862 863 863 863
827 834 838 834 830 832 833 834 835 835 836 838 839 841 843 844 845 846 848 849 851 852 853 854 855 856 856 857 858 859 860 860 860 860 861 861 861 861 861 862 861 862
825 832 837 835 830 829 831 832 832 833 833 834 835 836 838 840 842 843 845 846 848 849 851 852 853 854 854 855 856 857 858 858 858 859 859 859 859 859 860 860 860 861
821 825 832 833 830 828 829 830 830 831 832 833 833 833 834 836 838 840 841 843 844 846 847 849 850 851 852 853 854 854 855 856 856 856 856 856 857 857 858 858 858 859
819 823 827 829 827 826 827 827 828 829 830 831 832 833 833 833 835 836 838 839 840 842 843 845 846 847 848 850 851 852 853 853 853 854 854 854 854 854 855 855 856 856
821 824 825 825 825 825 825 825 826 827 828 829 829 830 832 832 833 833 834 835 837 838 839 840 841 843 844 846 847 849 850 851 851 852 851 851 851 851 852 852 853 853
822 823 823 823 822 822 823 823 824 825 825 826 825 826 829 830 831 831 832 832 833 834 836 837 838 839 841 843 844 845 847 848 849 849 849 850 850 849 849 850 850 851
821 822 821 821 819 819 820 821 822 823 823 823 822 823 825 827 828 830 830 831 831 832 833 834 835 837 838 839 840 841 843 844 845 847 847 848 848 848 848 848 848 849
821 820 820 819 817 817 817 818 820 821 820 820 820 821 822 824 826 827 829 830 830 830 831 832 833 834 835 837 837 838 839 840 841 843 844 844 845 845 846 846 846 847
820 819 818 817 816 815 815 815 816 817 817 817 817 818 820 821 823 825 826 828 829 829 830 830 832 833 834 835 835 835 836 836 837 838 839 841 842 842 843 844 844 845
819 818 817 816 815 815 815 814 814 813 814 815 815 817 819 820 822 823 824 826 827 827 827 828 829 830 832 833 833 833 834 833 833 834 835 836 837 838 840 841 842 842
819 818 817 816 815 814 814 814 814 813 813 814 815 816 818 819 820 821 823 823 824 824 825 825 825 827 829 830 831 832 832 832 832 832 833 834 835 836 836 837 838 839
820 819 818 817 816 815 815 815 814 814 814 815 815 816 816 817 818 819 820 821 821 821 822 822 823 824 826 827 829 830 831 831 832 832 832 832 833 834 835 835 836 837
820 819 818 818 817 817 816 816 815 815 815 815 815 815 815 816 816 817 818 818 819 819 820 820 821 822 824 825 826 827 829 830 833 834 834 834 833 833 832 832 832 833
821 820 819 818 818 817 816 816 816 815 815 814 814 814 814 815 815 816 816 817 817 818 819 820 820 821 822 823 823 825 826 828 831 833 834 834 834 833 832 830 829 829
Wind_Speed
20 21 19 18 19 19 19 20 18 17 17 18 18 17 17 15 14 16 16 15 15 14 14 14 13 12 12 12 12 12 11 10 10 10 9 8 8 7 6 6 5 5
22 22 20 18 19 19 19 19 19 18 17 17 17 16 16 15 14 16 18 16 15 15 14 15 14 12 13 13 13 13 11 10 11 10 9 8 8 7 7 7 7 6
22 22 22 20 19 19 19 18 18 18 16 15 16 15 15 15 14 16 18 16 16 16 15 14 14 13 13 13 13 13 11 11 11 10 9 9 8 8 8 8 8 7
24 23 23 22 20 19 18 18 18 18 17 16 15 15 14 14 14 15 16 15 14 16 15 14 14 14 13 13 12 13 12 11 11 10 9 9 10 9 8 9 9 8
25 24 23 23 22 20 19 19 19 18 18 17 16 15 15 15 15 15 16 15 15 15 16 15 14 14 14 13 13 13 12 11 11 10 9 9 11 10 9 10 9 9
25 25 24 24 23 21 20 20 20 19 18 18 17 16 16 16 18 18 17 17 16 16 17 16 15 15 14 14 14 13 12 12 11 11 10 11 12 11 9 10 10 9
25 26 25 25 24 22 22 21 20 20 19 19 18 18 17 17 18 19 19 19 18 17 17 17 16 16 15 15 14 13 13 12 11 12 13 13 14 12 11 11 11 10
24 26 25 25 25 23 23 22 22 21 20 20 19 20 20 18 18 19 19 19 19 19 18 17 18 18 17 17 16 15 14 13 13 14 14 14 14 14 13 12 12 12
18 23 25 24 24 24 23 23 23 22 21 21 21 21 22 22 21 20 20 20 19 20 20 19 19 19 19 19 19 17 16 16 16 16 16 15 15 15 14 14 13 12
15 18 23 25 24 24 23 22 24 23 22 23 22 22 22 23 23 23 21 21 21 20 20 21 21 21 21 21 21 20 19 18 17 17 18 17 16 15 15 16 15 13
14 14 18 22 21 22 22 22 23 24 24 24 24 23 23 23 24 25 24 23 23 22 22 22 22 22 23 22 22 21 21 20 18 18 19 19 18 16 15 17 17 16
16 16 14 17 19 19 20 19 19 21 23 25 26 24 23 24 24 25 25 25 25 24 23 23 23 22 23 24 23 22 21 20 20 19 19 19 20 19 17 18 19 18
14 16 19 20 20 19 19 18 16 16 17 20 26 28 25 23 25 26 27 26 27 27 26 24 24 24 24 24 24 23 22 22 21 21 20 20 20 20 19 19 19 20
12 14 20 21 20 18 18 19 18 16 13 12 18 28 30 26 24 26 29 28 27 28 29 27 26 25 25 25 24 24 23 23 23 23 23 22 22 22 22 21 21 21
10 14 18 19 18 18 18 21 22 19 17 13 11 18 28 31 28 26 28 31 29 28 30 30 28 28 28 27 27 26 26 26 26 26 25 25 24 24 24 24 23 23
7 12 17 17 18 18 18 21 23 21 21 21 15 12 17 26 30 29 27 30 33 31 30 31 31 30 30 30 30 29 29 29 28 27 27 27 27 26 26 25 25 24
8 9 12 14 16 16 15 15 17 18 20 24 24 17 12 16 25 31 30 30 32 34 33 33 33 32 31 30 31 31 31 31 31 29 28 27 28 28 27 27 27 26
7 7 9 10 12 13 13 12 14 16 17 21 26 25 19 16 18 24 29 31 31 34 35 34 34 34 33 31 30 31 32 32 33 33 31 29 29 29 30 29 28 27
7 6 6 7 8 8 9 10 12 13 14 15 20 24 24 22 18 17 20 25 28 31 34 35 35 34 34 33 31 31 32 33 34 34 33 32 31 30 30 30 30 29
8 7 5 3 4 5 7 7 8 9 10 12 15 20 23 25 23 18 16 17 19 22 27 32 34 35 35 35 33 32 32 34 35 35 34 34 34 32 31 31 31 31
8 7 7 5 2 1 4 6 7 8 9 11 13 17 20 23 25 24 22 19 17 17 18 21 25 28 30 33 34 34 33 34 36 38 36 34 34 34 33 32 32 32
11 10 10 7 4 3 3 3 4 5 7 9 12 14 17 19 22 24 24 22 20 19 19 20 21 21 21 24 28 32 35 36 37 39 38 37 35 35 34 33 32 32
12 12 11 9 7 7 7 7 5 5 6 7 9 11 13 15 17 19 19 20 21 21 21 21 23 25 23 21 20 23 28 34 38 39 37 36 36 35 34 34 33 32
12 12 12 11 9 8 9 8 7 6 6 6 7 9 10 11 14 16 17 18 20 22 22 22 24 26 26 25 23 21 20 24 29 35 37 37 37 36 35 34 33 33
10 11 11 10 9 8 7 7 7 7 7 6 6 8 9 9 10 12 15 17 19 20 22 22 23 25 25 26 26 25 24 23 22 23 27 29 31 33 34 35 35 35
11 9 8 8 7 7 7 5 6 6 6 7 7 6 7 8 9 10 12 15 16 17 18 19 21 22 21 20 21 22 24 24 21 19 21 23 24 25 28 32 34 35
Wind_Direction
188 189 189 188 190 190 189 187 185 188 191 191 197 199 201 204 201 203 205 200 204 207 201 200 197 194 194 190 187 190 191 188 186 183 180 186 194 195 208 212 212 237
192 192 193 192 191 192 195 193 191 193 195 196 201 200 202 207 206 207 207 202 204 209 206 202 203 203 200 193 191 195 198 198 195 190 186 187 194 207 217 212 214 234
196 195 196 197 194 193 197 198 196 197 199 200 202 200 201 207 210 210 207 204 205 208 209 208 207 209 210 204 199 202 205 202 199 196 196 195 200 212 218 214 215 224
199 200 200 201 198 197 200 200 200 200 201 203 202 201 202 204 207 205 202 205 207 206 210 213 210 210 216 215 210 212 211 204 200 198 200 204 209 214 216 213 215 220
202 203 203 204 202 201 203 203 205 205 203 204 202 201 205 205 206 205 204 208 209 209 213 214 211 212 216 217 216 219 218 211 207 206 210 216 217 219 219 217 218 219
205 205 205 205 203 204 206 206 210 211 207 207 205 201 206 210 210 207 207 210 210 213 215 213 213 216 219 220 218 222 224 218 214 215 222 231 230 227 226 226 227 217
207 207 208 209 206 206 209 208 210 213 211 211 210 205 206 213 213 208 208 211 211 214 216 215 215 216 222 227 224 224 227 224 221 222 226 235 239 235 228 230 235 226
210 210 210 211 210 210 213 210 208 213 212 212 215 211 206 210 212 209 210 213 214 215 217 218 219 218 221 227 228 226 227 227 228 229 231 237 241 237 229 233 242 238
205 210 211 213 213 213 216 213 209 212 212 212 217 215 210 211 213 211 213 217 220 218 217 220 221 220 220 224 228 230 229 228 231 234 236 238 240 235 229 232 242 241
197 205 208 212 216 216 218 217 211 212 215 214 216 216 213 214 215 215 215 220 222 219 219 221 223 222 221 221 227 232 232 230 230 234 238 239 238 233 227 231 240 242
213 219 209 205 212 218 220 222 218 216 217 216 216 218 217 216 218 218 217 220 222 221 219 221 223 224 222 221 225 231 234 234 231 233 238 240 238 234 230 233 238 240
232 253 240 205 203 214 218 220 221 220 221 218 216 219 220 219 219 219 218 219 222 223 223 224 223 224 226 225 224 228 233 235 234 234 239 241 239 237 236 235 237 239
226 256 258 228 210 215 219 216 214 217 222 221 217 217 220 223 222 219 219 221 222 223 225 228 226 225 227 228 226 227 232 236 235 235 239 241 239 238 238 238 240 242
215 237 254 244 225 225 229 223 218 216 220 225 221 215 215 220 225 222 219 221 225 226 225 228 230 228 228 228 227 228 230 234 236 235 237 240 240 239 238 239 241 243
224 228 242 244 235 234 235 229 224 225 229 235 238 224 215 215 221 224 221 218 222 227 227 226 228 229 231 232 231 231 230 231 235 236 236 237 239 241 240 241 243 244
221 227 231 235 234 232 230 227 227 233 237 233 234 241 229 218 217 220 222 219 218 222 226 225 225 228 231 233 234 234 233 232 234 237 236 234 236 238 239 240 242 243
198 209 216 224 229 230 231 232 235 240 242 232 225 230 246 239 225 220 221 221 219 219 222 223 224 226 229 232 235 236 235 234 235 237 237 236 235 236 238 240 241 242
171 183 192 202 213 226 235 241 241 237 236 231 225 222 230 246 242 229 225 225 221 219 220 222 224 225 227 230 234 236 237 236 236 237 238 239 239 238 239 241 242 242
116 144 174 192 201 217 233 243 243 237 234 234 229 225 228 237 246 245 237 232 227 221 220 222 224 226 227 228 231 235 237 237 237 237 238 240 242 243 243 243 243 243
85 99 112 146 195 214 229 245 256 253 248 248 242 237 236 239 243 249 250 244 236 228 222 222 225 228 230 230 231 234 236 237 236 236 237 239 240 243 245 245 245 246
63 60 59 62 82 206 236 249 263 268 261 259 254 248 245 244 244 247 249 248 244 239 233 229 228 230 232 234 235 236 236 237 237 235 235 237 239 241 243 245 247 247
52 48 45 40 26 13 3 332 311 303 286 274 266 259 256 255 251 251 254 255 252 249 248 245 241 239 240 240 240 240 239 240 238 234 232 234 236 239 241 243 246 248
46 46 48 44 28 13 12 8 354 343 333 308 287 274 266 262 262 265 269 270 267 263 259 256 251 248 251 255 256 252 249 247 242 236 232 233 236 239 241 242 242 245
45 44 46 50 41 25 18 15 8 357 343 323 302 291 280 272 271 273 274 275 275 270 267 266 261 257 258 263 268 272 274 270 258 244 237 235 237 239 241 243 243 245
39 42 43 46 39 25 16 9 6 6 357 340 316 298 292 287 281 278 276 276 277 275 273 271 269 268 269 271 275 281 288 293 286 267 253 249 247 245 244 244 245 246
16 26 35 38 22 5 3 356 351 355 356 354 345 326 312 300 288 285 282 279 280 283 282 276 274 277 283 287 289 292 292 293 294 290 280 271 267 266 261 255 250 248